Regional Weather Roundup
Issued by NWS Newport/Morehead, NC

Current Version | Previous Version | Graphics & Text | Print | Product List | Glossary On
Versions: 1 2 3 4 5 6 7 8 9 10 11 12 13 14 15 16 17 18 19 20 21 22 23 24 25 26 27 28 29 30 31 32 33 34 35 36 37 38 39 40 41 42 43 44 45 46 47 48 49 50
000 ASUS42 KMHX 300813 RWRMHX WEATHER ROUNDUP FOR EASTERN NORTH CAROLINA NATIONAL WEATHER SERVICE NEWPORT/MOREHEAD CITY NC 400 AM EDT SAT MAY 30 2015 NOTE: "FAIR" INDICATES FEW OR NO CLOUDS BELOW 12,000 FEET WITH NO SIGNIFICANT WEATHER AND/OR OBSTRUCTIONS TO VISIBILITY NCZ015>017-031-032-045>047-102-103-300900- NORTH COAST CITY SKY/WX TMP DP RH WIND PRES REMARKS EDENTON CLEAR 68 65 92 CALM 30.20S ELIZABETH CITY PTCLDY 68 67 96 CALM 30.20S FOG KITTY HAWK N/A 69 68 94 CALM 30.19S MANTEO PTCLDY 71 65 81 SE3 30.20S $$ NCZ045>047-081-094-103-104-300900- CENTRAL COAST CITY SKY/WX TMP DP RH WIND PRES REMARKS FRISCO CLEAR 73 64 73 SE5 30.19S SWANQUARTER N/A 70 N/A N/A E2 30.15S $$ NCZ095-097-098-100-101-300900- SOUTHERN COAST CITY SKY/WX TMP DP RH WIND PRES REMARKS BEAUFORT CLEAR 68 65 90 CALM 30.18S CEDAR ISLAND N/A 72 N/A N/A SE5 30.21S JACKSONVILLE CLOUDY 72 67 84 NE3 30.17S PINEY ISLAND MOSUNNY N/A N/A N/A CALM 30.18S WILMINGTON CLEAR 68 65 90 NE3 30.16F $$ NCZ011>013-027>030-043-044-078>080-089-090>093-098-300900- COASTAL PLAIN CITY SKY/WX TMP DP RH WIND PRES REMARKS AHOSKIE FOG 63 63 98 CALM 30.20S VSB 1/2 CLINTON PTCLDY 67 67 100 CALM 30.18F ELIZABETHTOWN CLEAR 66 66 99 CALM 30.17S GOLDSBORO CLEAR 68 66 96 CALM 30.16F GREENVILLE CLEAR 66 64 94 CALM 30.20S HAVELOCK CLEAR 67 64 90 CALM 30.19S KENANSVILLE PTCLDY 64 63 94 CALM 30.19S KINSTON PTCLDY 66 65 96 CALM 30.19F NEW BERN PTCLDY 66 63 90 CALM 30.19F RICHLANDS MOCLDY 66 63 88 N3 30.18S ROCKY MOUNT CLOUDY 69 67 93 CALM 30.19S WASHINGTON PTCLDY 67 65 94 CALM 30.19F WHITEVILLE CLEAR 67 65 94 CALM 30.16S $$ AMZ130-135-150-152-154-156-158-170-250-252-270-ANZ085-086-088-633-658-670-300900- MARINE OBSERVATIONS STATION/POSITION TIME TEMP WIND PRES WAVE SWELL AIR SEA DIR/SP/G HT/PER HT/PER (UTC) (F) (DEG/KT/KT) (MB) (FT/S) (FT/S) CHESAPEAKE LIGHT 0700 69 160/ 14/ 14 1023.2 64 E VA BEACH 0750 69 66 130/ 6/ 6 1022.5 3/ 8 3/ 8 DUCK 0700 69 58 140/ 5/ 5 1021.7 2 E DUCK 0711 65 N/A 3/ 9 OREGON INLET 0700 72 75 140/ 4/ 5 1022.5 13E OREGON INLT 0800 75 N/A 4/ 8 2/11 HATTERAS CG 0700 75 78 140/ 6/ 9 1021.9 DIAMOND BUOY 0750 75 79 130/ 10/ 14 1022.0 4/ 9 3/ 9 CAPE LOOKOUT 0800 74 140/ 4/ 4 1021.6 BEAUFORT LAB 0700 74 77 140/ 5/ 5 1021.1 27 SE WRIGHTSVLE 0700 75 130/ 6/ 8 N/A 5 SE WRIGHTSVLE 0708 76 77 150/ 8/ 12 1021.4 225 S CAPE HAT 0750 74 74 80/ 12/ 14 1020.6 6/ 9 5/ 9 41 SE CHARLESTON 0750 77 78 100/ 12/ 16 1019.4 5/ 8 3/ 8 $$

USA.gov is the U.S. government's official web portal to all federal, state and local government web resources and services.